Location: Unnamed
(45.7828°N, 108.5339°W)
Time: 19:09:17
(UTC-06:00)

ISS - Pass Details

Date: 26 June 2021
Orbit: 419 x 421 km, 51.6° (Epoch: 02 August)

Event Time Altitude Azimuth Distance (km) Brightness Sun altitude
Exits shadow 04:45:42 - 193° (SSW) 1,958 -0.9 -6.3°
Reaches altitude 10° 04:47:08 10° 180° (S) 1,493 -1.4 -6.1°
Maximum altitude 04:49:29 18° 135° (SE) 1,113 -1.6 -5.8°
Drops below altitude 10° 04:51:49 10° 91° (E) 1,500 -0.2 -5.5°
Sets 04:54:22 0° 72° (ENE) 2,368 1.5 -5.1°
